Location: Alando
(42.3054°N, 9.2895°E)
Time: 15:30:46
(UTC+00:00)

Cosmos 2322 Rocket - Pass Details

Date: 09 April 2020
Orbit: 834 x 849 km, 71.0° (Epoch: 28 May)

Event Time Altitude Azimuth Distance (km) Brightness Sun altitude
Rises 23:20:28 0° 332° (NNW) 3,399 6.1 -39.7°
Reaches altitude 10° 23:22:57 10° 329° (NNW) 2,459 5.1 -39.7°
Enters shadow 23:24:31 19° 325° (NW) 1,886 4.4 -39.7°
